Hourly Data Report for October 22, 2016

All times are specified in Local Standard Time (LST). Add 1 hour to adjust for Daylight Saving Time where and when it is observed.

WINNIPEG A CS
MANITOBA

49°55'00.000" N
97°14'58.000" W
238.70 m
502S001
71849
XWG

Download Data

Hourly Data (October 2016)
Hourly Data Report for October 22, 2016
Temp Definition
°C
Dew Point Temp Definition
°C
Rel Hum Definition
%
Wind Dir Definition
10's deg

Wind Spd Definition
km/h
Visibility Definition
km
Stn Press Definition
kPa
Hmdx Definition


Wind Chill Definition


Weather Definition


TIME
00:00 0.9 0.9 100 26 7   98.35     LegendNANA
01:00 -0.3 -0.4 99 25 10   98.42   -4 LegendNANA
02:00 -1.4 -1.5 100 26 4   98.44   -3 LegendNANA
03:00 -1.3 -1.3 100 29 2   98.47   -2 LegendNANA
04:00 -0.6 -0.6 100 23 3   98.50   -2 LegendNANA
05:00 -2.1 -2.1 100   0   98.53     LegendNANA
06:00 -1.9 -1.9 100 17 3   98.54   -3 LegendNANA
07:00 -3.1 -3.1 100 23 1   98.56   -4 LegendNANA
08:00 -1.6 -1.6 100 16 2   98.62   -2 LegendNANA
09:00 2.7 2.6 99   0   98.66     LegendNANA
10:00 2.5 2.4 99 2 2   98.67     LegendNANA
11:00 5.8 5.4 97 3 1   98.65     LegendNANA
12:00 9.4 4.9 74 15 2   98.63     LegendNANA
13:00 10.7 5.3 69 11 6   98.58     LegendNANA
14:00 10.9 5.3 68 10 5   98.55     LegendNANA
15:00 10.6 5.4 70 10 9   98.51     LegendNANA
16:00 10.1 4.7 69 9 7   98.48     LegendNANA
17:00 8.5 4.4 75 8 6   98.49     LegendNANA
18:00 7.9 4.6 80 4 6   98.50     LegendNANA
19:00 7.8 5.3 84 7 9   98.54     LegendNANA
20:00 8.1 5.9 87 4 12   98.48     LegendNANA
21:00 8.1 5.9 86 14 15   98.54     LegendNANA
22:00 7.2 5.9 92 9 13   98.53     LegendNANA
23:00 6.8 5.8 94 7 13   98.49     LegendNANA

Notes on Data Quality.

Legend

  • E = Estimated
  • M = Missing
  • NA = Not Available
  • ‡ = Partner data that is not subject to review by the National Climate Archives
Date modified: